User: anonymous   Login
Location: Bastelaar
(51.0950°N, 3.8602°E)
Time: 13:30:08
(UTC+00:00)
Language:

Cosmos 44 Rocket - Orbit

View from above orbital plane
View from above orbital plane
View from above satellite
View from above satellite

Ground track
Ground track

The orbit is defined by the following mean orbital elements,

1 00877U          26022.63494480 +.00000000 +00000-0 +15078-3 0 00009
2 00877  65.0771 106.2551 0077195 306.9094  52.4949 14.61315629    01
Epoch (UTC): 22 January 2026 15:14:19
Eccentricity: 0.0077195
inclination: 65.0771°
perigee height: 634 km
apogee height: 743 km
right ascension of ascending node: 106.2551°
argument of perigee: 306.9094°
revolutions per day: 14.61315629
mean anomaly at epoch: 52.4949°

The dashed part of the orbit path shows where the satellite is in the earth's shadow,  

DLR